Date,TemperatureHighF,TemperatureAvgF,TemperatureLowF,DewpointHighF,DewpointAvgF,DewpointLowF,HumidityHigh,HumidityAvg,HumidityLow,PressureMaxIn,PressureMinIn,WindSpeedMaxMPH,WindSpeedAvgMPH,GustSpeedMaxMPH,PrecipitationSumIn
2013-1-1,59.5,48.0,36.6,29.6,20.6,13.2,56,36,19,30.28,30.18,6,1,8,0.00
2013-1-2,66.4,52.0,41.3,20.5,13.8,11.1,35,23,12,30.22,30.05,9,2,9,0.00
2013-1-3,68.3,52.8,40.2,20.0,10.8,4.9,35,20,9,30.23,30.08,15,2,17,0.00
2013-1-4,63.9,47.4,33.7,14.8,8.6,3.2,32,21,11,30.31,30.20,8,2,10,0.00
2013-1-5,64.2,47.4,33.2,17.4,10.9,6.0,37,24,12,30.34,30.17,8,1,8,0.00
2013-1-6,63.9,50.4,35.9,38.5,23.5,9.9,58,36,18,30.18,29.97,21,5,25,0.00
2013-1-7,70.1,57.7,45.5,40.2,26.1,9.4,69,35,13,30.05,29.95,21,4,24,0.00
2013-1-8,81.4,65.1,50.4,34.1,24.9,14.1,31,22,15,30.09,29.97,14,3,16,0.00
2013-1-9,73.0,60.4,48.0,38.8,30.8,26.7,51,34,21,30.15,29.91,10,2,10,0.00
2013-1-10,64.5,55.5,48.3,43.0,31.9,13.9,61,42,24,30.00,29.78,29,6,31,0.00
2013-1-11,57.3,49.8,45.7,23.6,15.5,8.8,38,26,15,30.12,30.00,23,5,27,0.00
2013-1-12,56.9,46.6,35.8,27.1,17.3,8.5,55,33,15,30.17,30.03,15,2,17,0.00
2013-1-13,55.0,42.7,30.4,13.5,9.1,2.2,41,26,16,30.20,30.05,14,2,14,0.00
2013-1-14,54.2,43.7,36.6,5.7,-1.2,-9.0,23,15,8,30.39,30.21,28,6,28,0.00
2013-1-15,58.4,46.0,36.2,16.0,8.8,-2.1,34,22,15,30.50,30.36,15,3,17,0.00
2013-1-16,67.9,46.4,35.3,25.4,16.9,6.9,42,31,19,30.43,30.24,9,2,10,0.00
2013-1-17,74.6,57.4,42.9,24.8,16.9,11.2,35,22,11,30.29,30.14,7,1,8,0.00
2013-1-18,76.7,58.7,44.6,24.4,16.6,10.0,28,20,11,30.22,30.10,5,1,6,0.00
2013-1-19,77.6,60.8,46.7,24.0,14.3,9.1,26,17,9,30.24,30.11,6,1,9,0.00
2013-1-20,79.2,62.3,43.3,20.3,10.7,5.8,27,14,7,30.17,30.03,7,1,10,0.00
2013-1-21,79.8,62.9,47.7,23.5,9.8,2.7,20,13,6,30.13,30.02,10,1,10,0.00
2013-1-22,79.0,60.2,44.6,21.8,11.8,2.1,23,15,7,30.15,30.04,6,1,7,0.00
2013-1-23,76.5,63.1,51.1,29.8,21.8,13.0,31,21,12,30.13,30.02,5,0,6,0.00
2013-1-24,70.1,64.4,59.3,48.2,38.5,26.7,66,39,26,30.20,30.04,15,1,17,0.01
2013-1-25,62.9,59.6,57.5,56.7,54.3,48.3,93,83,67,30.18,29.98,7,1,7,0.42
2013-1-26,68.6,61.5,56.9,59.0,56.2,55.1,95,83,65,29.98,29.85,11,1,12,0.13
2013-1-27,66.1,58.9,52.2,56.8,47.3,32.7,93,68,36,29.96,29.85,18,4,20,0.00
2013-1-28,63.7,54.7,49.1,38.1,28.0,20.9,64,37,23,30.12,29.94,26,7,26,0.00
2013-1-29,65.0,55.2,44.6,40.8,30.4,22.2,66,41,22,30.23,30.06,18,3,19,0.00
2013-1-30,69.3,55.0,43.5,40.4,35.9,30.8,78,52,25,30.35,30.21,9,1,9,0.00
2013-1-31,75.6,58.1,43.5,40.8,37.3,32.9,75,50,23,30.25,30.09,7,1,7,0.00